SCP
0 0 0 0 0 0 0 0 0 0 0 0 0 0 0 0 0 0 0 0 0 0 0 0 0 0 0 0 1 0 0 1
0 0 0 0 0 0 0 0 0 0 0 0 0 0 0 0 0 0 0 0 0 0 0 0 0 0 0 0 0 1 0 0
0 0 0 0 0 0 0 0 0 0 0 0 0 0 0 0 0 0 0 0 0 0 0 0 0 0 0 0 0 0 0 1
0 0 0 0 0 0 0 0 0 0 0 0 0 0 0 0 0 0 0 0 0 0 0 0 0 0 0 0 0 0 0 1
0 0 0 0 0 0 0 0 0 0 0 0 0 0 0 0 0 0 0 0 0 0 0 0 0 0 0 0 0 0 0 0
0 0 0 0 0 0 0 0 0 0 0 0 0 0 0 0 0 0 0 0 0 0 0 0 0 0 0 0 0 0 0 0
0 0 0 0 0 0 0 0 0 0 0 0 0 0 0 0 0 0 0 0 0 0 0 0 0 1 0 0 0 0 0 0
0 0 0 0 0 0 0 0 0 0 0 0 0 0 0 0 0 0 0 0 0 0 0 0 0 0 1 0 0 0 0 0
0 0 0 0 0 0 0 0 0 0 0 0 0 0 0 0 0 0 0 0 0 0 0 0 0 0 0 1 0 0 0 0
0 0 0 0 0 0 0 0 0 0 0 0 0 0 0 0 0 0 0 0 0 0 0 0 0 0 0 0 0 0 1 0
0 0 0 0 0 0 0 0 0 0 0 0 0 0 0 0 0 0 0 0 0 0 0 0 0 0 0 0 0 0 0 0
0 0 0 0 0 0 0 0 0 0 0 0 0 0 0 0 0 0 0 0 0 0 0 0 0 0 0 0 0 0 0 0
0 0 0 0 0 0 0 0 0 0 0 0 0 0 0 0 0 0 0 0 0 0 0 0 0 0 0 0 0 0 0 0
0 0 0 0 0 0 0 0 0 0 0 0 0 0 0 0 0 0 0 0 0 0 0 0 0 0 0 0 0 0 0 0
0 0 0 0 0 0 0 0 0 0 0 0 0 0 0 0 0 0 0 0 0 0 0 0 0 0 0 0 0 0 0 0
0 0 0 0 0 0 0 0 0 0 0 0 0 0 0 0 0 0 0 0 0 0 0 0 0 0 0 0 0 0 0 0
0 0 0 0 -0 0 0 0 -0 -0 -0 0 0 0 0 -0 0 0 0 0 0 0 0 0 0 0 0 0 0 0 0 0
0 0 0 0 0 0 0 -0 -0 0 0 0 0 0 0 -0 -0 0 0 0 0 0 0 0 0 0 0 0 0 0 0 0
0 0 0 0 0 0 0 0 0 0 0 0 0 0 0 0 0 0 0 0 0 0 0 -0 0 -0 0 0 0 0 0 0
Wind_Speed_500mb
16 14 5 11 16 3 10 3 16 11 11 11 26 34 47 44 38 29 7 29 49 51 57 65 74 79 84 84 78 78 74 68
9 3 23 4 9 12 4 15 19 11 10 6 24 29 32 41 44 38 30 20 22 46 59 60 66 74 77 79 78 77 72 74
3 17 13 3 6 7 4 4 11 16 9 9 13 18 24 34 40 45 42 36 29 31 44 55 61 65 78 77 76 76 81 79
10 4 8 12 6 1 15 12 4 1 11 14 14 22 27 32 39 39 44 42 42 33 21 35 49 57 65 75 76 76 75 73
3 4 3 7 9 6 4 1 8 13 12 15 21 27 29 32 40 45 46 52 47 45 26 12 31 45 54 62 72 71 76 80
2 8 5 6 3 7 6 6 14 4 22 15 22 24 30 35 37 41 51 57 63 45 34 24 18 34 44 53 65 70 69 72
14 11 5 3 4 5 5 6 4 16 10 14 17 20 25 25 30 40 50 55 57 58 48 29 20 11 34 41 52 62 66 76
7 6 5 4 6 9 9 4 6 5 2 12 7 15 24 31 30 36 41 48 52 51 55 52 32 15 11 30 46 53 56 64
8 5 2 7 1 6 2 4 5 7 7 18 11 20 27 22 25 30 36 43 47 48 48 50 50 33 15 16 33 45 49 50
9 7 9 10 8 6 6 12 12 11 11 16 25 31 21 8 25 35 37 40 43 44 45 44 48 38 38 12 22 36 46 49
7 10 3 4 3 4 1 4 10 7 12 18 29 31 12 5 27 34 35 40 42 43 41 39 42 41 35 29 20 24 31 38
6 7 12 9 13 6 10 7 5 8 13 22 26 11 3 23 45 49 42 37 40 45 44 38 37 39 37 29 21 14 4 12
7 5 3 11 10 11 9 8 3 8 14 18 16 22 46 57 55 46 49 52 45 42 46 46 41 39 35 28 21 23 17 12
5 7 9 20 12 10 8 5 6 11 16 22 28 38 44 52 57 57 54 52 51 50 47 46 46 43 39 36 31 27 26 20
12 5 5 18 5 9 5 6 12 12 15 22 30 37 46 50 53 56 57 54 46 48 55 49 48 47 49 43 40 34 30 23
4 14 21 17 10 9 6 1 7 14 19 23 31 44 54 48 50 58 56 54 49 51 50 55 53 49 51 50 47 43 38 33
8 11 6 16 22 14 21 17 16 16 18 24 26 44 46 47 48 55 57 53 54 53 51 52 53 54 51 50 52 51 47 39
9 18 18 14 32 25 30 23 18 16 21 20 30 40 40 46 51 51 52 54 66 59 57 53 48 50 50 50 51 53 56 52
8 25 13 24 25 21 22 17 13 17 18 24 35 31 35 42 50 47 43 40 50 52 46 42 42 35 37 49 52 53 57 59
Wind_Direction_500mb
42 28 320 148 200 53 112 86 178 150 108 193 22 25 25 26 30 28 326 239 233 227 224 225 231 231 232 234 232 233 234 232
9 320 49 4 115 172 205 164 179 134 124 69 8 9 12 17 16 12 4 339 266 239 233 230 232 237 235 233 236 237 237 235
31 29 3 39 123 64 112 320 182 168 123 39 34 30 18 20 19 18 13 4 342 270 239 233 232 227 239 236 233 234 238 238
96 12 340 48 80 346 215 182 72 359 118 54 49 41 36 27 22 18 19 13 11 4 241 232 229 226 225 237 235 236 237 242
144 225 130 46 38 71 89 58 173 197 134 77 59 47 32 27 24 26 25 27 24 26 26 259 244 236 227 231 239 242 239 239
153 73 87 141 46 34 5 210 150 84 138 67 44 41 27 18 24 30 29 27 32 35 26 15 273 247 236 236 246 244 242 242
72 80 91 164 238 337 353 66 311 133 120 59 39 34 30 25 28 30 25 24 22 25 32 15 4 315 246 238 243 251 249 249
83 61 17 264 253 293 291 294 243 232 222 26 37 32 28 26 31 26 20 18 15 17 19 30 19 345 301 241 247 251 251 251
148 14 182 226 196 221 266 43 338 242 54 356 11 5 1 14 26 20 12 11 11 9 9 11 24 17 317 277 231 235 246 249
137 150 211 84 41 13 230 62 43 106 48 10 341 328 316 82 27 12 1 360 358 358 360 360 7 20 20 295 249 231 233 240
178 193 82 191 57 58 46 127 31 27 5 354 340 324 176 88 1 349 342 343 342 341 343 346 349 1 20 31 354 254 250 247
177 206 202 112 148 161 166 234 123 6 352 346 346 303 280 321 325 321 322 322 323 327 326 329 335 342 351 7 17 11 289 241
182 237 221 147 148 156 221 79 0 327 327 322 308 293 295 307 308 313 312 309 304 305 313 315 319 321 332 338 358 22 21 9
179 221 236 158 155 227 68 57 359 348 336 325 318 312 306 303 303 306 307 307 304 297 291 300 302 305 306 315 314 299 301 319
207 213 130 168 172 151 135 46 11 352 331 323 319 322 318 307 302 302 302 301 301 298 290 283 288 292 292 297 306 297 287 288
207 195 207 210 207 205 193 339 289 293 306 314 310 316 317 310 303 302 300 299 298 295 290 285 282 280 280 284 292 296 290 287
250 249 195 233 218 234 226 240 263 284 290 295 303 312 314 310 308 304 299 295 296 294 287 285 283 278 273 269 278 288 293 292
215 199 186 220 210 207 215 237 262 285 304 308 314 311 313 315 319 317 304 300 306 299 290 291 287 283 271 266 270 279 288 296
221 180 162 163 182 195 212 234 263 294 302 320 321 316 317 318 322 323 323 317 312 315 301 288 287 271 262 264 271 279 283 287
Wind_Speed_850mb
16 14 5 11 16 3 10 3 16 11 11 11 26 34 47 44 38 29 7 29 49 51 57 65 74 79 84 84 78 78 74 68
9 3 23 4 9 12 4 15 19 11 10 6 24 29 32 41 44 38 30 20 22 46 59 60 66 74 77 79 78 77 72 74
3 17 13 3 6 7 4 4 11 16 9 9 13 18 24 34 40 45 42 36 29 31 44 55 61 65 78 77 76 76 81 79
10 4 8 12 6 1 15 12 4 1 11 14 14 22 27 32 39 39 44 42 42 33 21 35 49 57 65 75 76 76 75 73
3 4 3 7 9 6 4 1 8 13 12 15 21 27 29 32 40 45 46 52 47 45 26 12 31 45 54 62 72 71 76 80
2 8 5 6 3 7 6 6 14 4 22 15 22 24 30 35 37 41 51 57 63 45 34 24 18 34 44 53 65 70 69 72
14 11 5 3 4 5 5 6 4 16 10 14 17 20 25 25 30 40 50 55 57 58 48 29 20 11 34 41 52 62 66 76
7 6 5 4 6 9 9 4 6 5 2 12 7 15 24 31 30 36 41 48 52 51 55 52 32 15 11 30 46 53 56 64
8 5 2 7 1 6 2 4 5 7 7 18 11 20 27 22 25 30 36 43 47 48 48 50 50 33 15 16 33 45 49 50
9 7 9 10 8 6 6 12 12 11 11 16 25 31 21 8 25 35 37 40 43 44 45 44 48 38 38 12 22 36 46 49
7 10 3 4 3 4 1 4 10 7 12 18 29 31 12 5 27 34 35 40 42 43 41 39 42 41 35 29 20 24 31 38
6 7 12 9 13 6 10 7 5 8 13 22 26 11 3 23 45 49 42 37 40 45 44 38 37 39 37 29 21 14 4 12
7 5 3 11 10 11 9 8 3 8 14 18 16 22 46 57 55 46 49 52 45 42 46 46 41 39 35 28 21 23 17 12
5 7 9 20 12 10 8 5 6 11 16 22 28 38 44 52 57 57 54 52 51 50 47 46 46 43 39 36 31 27 26 20
12 5 5 18 5 9 5 6 12 12 15 22 30 37 46 50 53 56 57 54 46 48 55 49 48 47 49 43 40 34 30 23
4 14 21 17 10 9 6 1 7 14 19 23 31 44 54 48 50 58 56 54 49 51 50 55 53 49 51 50 47 43 38 33
8 11 6 16 22 14 21 17 16 16 18 24 26 44 46 47 48 55 57 53 54 53 51 52 53 54 51 50 52 51 47 39
9 18 18 14 32 25 30 23 18 16 21 20 30 40 40 46 51 51 52 54 66 59 57 53 48 50 50 50 51 53 56 52
8 25 13 24 25 21 22 17 13 17 18 24 35 31 35 42 50 47 43 40 50 52 46 42 42 35 37 49 52 53 57 59
Wind_Direction_850mb
42 28 320 148 200 53 112 86 178 150 108 193 22 25 25 26 30 28 326 239 233 227 224 225 231 231 232 234 232 233 234 232
9 320 49 4 115 172 205 164 179 134 124 69 8 9 12 17 16 12 4 339 266 239 233 230 232 237 235 233 236 237 237 235
31 29 3 39 123 64 112 320 182 168 123 39 34 30 18 20 19 18 13 4 342 270 239 233 232 227 239 236 233 234 238 238
96 12 340 48 80 346 215 182 72 359 118 54 49 41 36 27 22 18 19 13 11 4 241 232 229 226 225 237 235 236 237 242
144 225 130 46 38 71 89 58 173 197 134 77 59 47 32 27 24 26 25 27 24 26 26 259 244 236 227 231 239 242 239 239
153 73 87 141 46 34 5 210 150 84 138 67 44 41 27 18 24 30 29 27 32 35 26 15 273 247 236 236 246 244 242 242
72 80 91 164 238 337 353 66 311 133 120 59 39 34 30 25 28 30 25 24 22 25 32 15 4 315 246 238 243 251 249 249
83 61 17 264 253 293 291 294 243 232 222 26 37 32 28 26 31 26 20 18 15 17 19 30 19 345 301 241 247 251 251 251
148 14 182 226 196 221 266 43 338 242 54 356 11 5 1 14 26 20 12 11 11 9 9 11 24 17 317 277 231 235 246 249
137 150 211 84 41 13 230 62 43 106 48 10 341 328 316 82 27 12 1 360 358 358 360 360 7 20 20 295 249 231 233 240
178 193 82 191 57 58 46 127 31 27 5 354 340 324 176 88 1 349 342 343 342 341 343 346 349 1 20 31 354 254 250 247
177 206 202 112 148 161 166 234 123 6 352 346 346 303 280 321 325 321 322 322 323 327 326 329 335 342 351 7 17 11 289 241
182 237 221 147 148 156 221 79 0 327 327 322 308 293 295 307 308 313 312 309 304 305 313 315 319 321 332 338 358 22 21 9
179 221 236 158 155 227 68 57 359 348 336 325 318 312 306 303 303 306 307 307 304 297 291 300 302 305 306 315 314 299 301 319
207 213 130 168 172 151 135 46 11 352 331 323 319 322 318 307 302 302 302 301 301 298 290 283 288 292 292 297 306 297 287 288
207 195 207 210 207 205 193 339 289 293 306 314 310 316 317 310 303 302 300 299 298 295 290 285 282 280 280 284 292 296 290 287
250 249 195 233 218 234 226 240 263 284 290 295 303 312 314 310 308 304 299 295 296 294 287 285 283 278 273 269 278 288 293 292
215 199 186 220 210 207 215 237 262 285 304 308 314 311 313 315 319 317 304 300 306 299 290 291 287 283 271 266 270 279 288 296
221 180 162 163 182 195 212 234 263 294 302 320 321 316 317 318 322 323 323 317 312 315 301 288 287 271 262 264 271 279 283 287